User: anonymous   Login
Location: American Medical Response
(33.3472°N, 96.5511°W)
Time: 00:59:47
(UTC+00:00)
Language:

Cosmos 1805 Rocket - Orbit

View from above orbital plane
View from above orbital plane
View from above satellite
View from above satellite

Ground track
Ground track

The orbit data is extracted from the following two-line orbital elements,

1 17192U 86097B   22140.42280382  .00000467  00000-0  53467-4 0  9994
2 17192  82.5079   8.5418 0015489 295.8223 237.5686 14.83762014894203
Epoch (UTC): 20 May 2022 10:08:50
Eccentricity: 0.0015489
inclination: 82.5079°
perigee height: 606 km
apogee height: 628 km
right ascension of ascending node: 8.5418°
argument of perigee: 295.8223°
revolutions per day: 14.83762014
mean anomaly at epoch: 237.5686°
orbit number at epoch: 89420

The dashed part of the orbit path shows where the satellite is in the earth's shadow,  

DLR